Home   Weather   Euskirchen   Past weeks

Flag for Germany Past Weather in Euskirchen, North Rhine-Westphalia, Germany — Yesterday and Last 2 Weeks

Now
52 °F

Cool.


Feels Like: 52 °F
Forecast: 50 / 59 °F
Wind: 2 mph from North

Location: Noervenich

Current Time: Oct 1, 2016 at 7:04:11 AM

Latest Report: Oct 1, 2016 at 6:20 AM


Visibility: N/A

Pressure: 29.83 "Hg

Humidity: 94%

Dew Point: 50 °F

Location of EuskirchenLocation

Past Weather in Euskirchen — Graph

°F

Euskirchen Temperature Yesterday

Maximum temperature yesterday: 64 °F (at 3:20 PM)
Minimum temperature yesterday: 54 °F (at 9:20 PM)
Average temperature yesterday: 59 °F

High & Low Weather Summary for the Past Weeks

 TemperatureHumidityPressure
High81 °F (Sep 25, 3:20 PM)100% (Sep 18, 5:20 AM)30.33 "Hg (Sep 18, 5:20 AM)
Low46 °F (Sep 22, 2:20 AM)30% (Sep 25, 3:20 PM)29.83 "Hg (Oct 1, 5:20 AM)
Average61 °F71%30.11 "Hg
* Reported Sep 16 5:20 AM — Oct 1 5:20 AM, Euskirchen, Weather by CustomWeather, © 2016

Note: Actual official high and low records may vary slightly from our data, if they occured in-between our weather recording intervals... More about our weather records

Advertising

Euskirchen Weather History for the Previous 24 Hours

Scroll right to see more
 ConditionsComfort  
Time TempWeatherWind HumidityBarometerVisibility
5:20 AM
Sat, Oct 1
54 °FLight rain. Passing clouds.6 mph88%29.83 "HgN/A
4:20 AM55 °FPartly cloudy.3 mph88%29.86 "HgN/A
3:20 AM55 °FLight rain. Passing clouds.2 mph88%29.86 "HgN/A
2:20 AM54 °FLight rain. Passing clouds.2 mph94%29.89 "HgN/A
1:20 AM55 °FLight rain. Passing clouds.6 mph82%29.92 "HgN/A
12:20 AM55 °FLight rain. Passing clouds.3 mph72%29.92 "HgN/A
11:20 PM
Fri, Sep 30
55 °FPassing clouds.5 mph72%29.95 "HgN/A
10:20 PM57 °FPassing clouds.3 mph67%29.95 "HgN/A
9:20 PM54 °FCool.2 mph77%29.98 "Hg5 mi
8:20 PM55 °FCool.2 mph72%29.98 "Hg5 mi
7:20 PM61 °FCool.2 mph63%29.95 "HgN/A
6:20 PM63 °FMild.5 mph56%29.95 "HgN/A
5:20 PM64 °FMild.8 mph52%29.98 "HgN/A
4:20 PM64 °FMild.13 mph52%29.98 "HgN/A
3:20 PM64 °FMild.12 mph52%29.98 "HgN/A
2:20 PM63 °FMild.13 mph59%29.98 "HgN/A
1:20 PM63 °FMild.15 mph59%29.98 "HgN/A
12:20 PM63 °FBroken clouds.13 mph64%29.98 "HgN/A
11:20 AM61 °FPartly sunny.14 mph72%29.98 "HgN/A
10:20 AM61 °FBroken clouds.13 mph72%29.98 "HgN/A
9:20 AM59 °FBroken clouds.8 mph77%29.98 "HgN/A
8:20 AM57 °FPartly sunny.8 mph82%29.95 "HgN/A
7:20 AM57 °FPartly cloudy.9 mph82%29.95 "HgN/A
Weather by CustomWeather, © 2016

See weather overviewHow to use our weather pages